Regional Weather Roundup
Issued by NWS

Home | Current Version | Previous Version | Graphics & Text | Print | Product List | Glossary On
Versions: 1 2 3 4 5 6 7 8 9 10 11 12 13 14 15 16 17 18 19 20 21 22 23 24 25 26 27 28 29 30 31 32 33 34 35 36 37 38 39 40 41 42 43 44 45 46 47 48 49 50
000
ASUS44 KMEG 251610
RWRTN
TENNESSEE HOURLY STATE WEATHER ROUNDUP
NATIONAL WEATHER SERVICE MEMPHIS TN
1000 AM CST SUN JAN 25 2015

TNZ002-004-019-021-049-052-054-088>092-251700-
WEST TENNESSEE

CITY           SKY/WX    TMP DP  RH WIND       PRES   REMARKS
MEMPHIS INTL   CLOUDY    48  35  60 SW14G23   29.73S
NWS MEMPHIS      N/A     47 N/A N/A MISG        N/A
JACKSON        CLOUDY    48  36  63 SW16G24   29.70F
DYERSBURG      CLOUDY    45  28  53 SW5       29.71R
UNION CITY     PTSUNNY   43  37  81 SW6       29.67S
PARIS          MOSUNNY   43  34  70 S8        29.68S
LEXINGTON      MOSUNNY   46  36  66 SW14      29.71F
SAVANNAH       SUNNY     48  37  66 S12       29.75F
$$

TNZ008-025-027-028-033-062-065-066-251700-
NORTH MIDDLE TENNESSEE

CITY           SKY/WX    TMP DP  RH WIND       PRES   REMARKS
NASHVILLE      PTSUNNY   45  34  65 S15       29.75F
CLARKSVILLE    CLOUDY    47  35  63 S14       29.70F
SMYRNA         MOSUNNY   44  35  70 SW7G16    29.78F
COOKEVILLE     SUNNY     45  36  70 S9        29.77F
CROSSVILLE     PTSUNNY   43  31  62 S10G17    29.81F
$$

TNZ061-075-076-078-094-096-097-251700-
SOUTH MIDDLE TENNESSEE

CITY           SKY/WX    TMP DP  RH WIND       PRES   REMARKS
FAYETTEVILLE   SUNNY     45  34  65 MISG      29.81F
TULLAHOMA      SUNNY     45  34  65 S9        29.80F
WINCHESTER     SUNNY     48  34  57 S12       29.82F
MCMINNVILLE    SUNNY     48  36  61 S8        29.79F
COLUMBIA         N/A     48  43  81 S13       29.73F
SHELBYVILLE    SUNNY     46  37  71 S12       29.79F
$$

TNZ017-018-042-046-047-251700-
NORTHEAST TENNESSEE

CITY           SKY/WX    TMP DP  RH WIND       PRES   REMARKS
TRI CITIES     PTSUNNY   41  32  70 CALM      29.87F
ELIZABETHTON   SUNNY     41  30  65 E5        29.87S
$$

TNZ012-013-036-069-073-074-251700-
CENTRAL EAST TENNESSEE

CITY           SKY/WX    TMP DP  RH WIND       PRES   REMARKS
KNOXVILLE      PTSUNNY   44  32  62 W6        29.86S
OAK RIDGE      MOSUNNY   41  30  65 SW5       29.88F
GATLINBURG     SUNNY     43  32  65 CALM      29.85F
MORRISTOWN     SUNNY     43  34  70 CALM      29.86S
$$

TNZ083-085-099-251700-
SOUTHEAST TENNESSEE

CITY           SKY/WX    TMP DP  RH WIND       PRES   REMARKS
CHATTANOOGA    MOSUNNY   45  33  63 S5        29.89S
$$

SKY/WX REPORTED AS FAIR MEANS FEW OR NO CLOUDS BELOW
12 THOUSAND FEET.




USA.gov is the U.S. government's official web portal to all federal, state and local government web resources and services.